owner,sensor,date,latitude,longitude,vertical_datum,sea_water_practical_salinity,qcFlag 
LUMCON,ioos:station:LUMCON:102:1,2011-08-01T01:00:00Z,29.1870,-90.6093,0.0,10.3,1111122 
LUMCON,ioos:station:LUMCON:102:1,2011-08-01T02:00:00Z,29.1870,-90.6093,0.0,9.9,1111122 
LUMCON,ioos:station:LUMCON:102:1,2011-08-01T03:00:00Z,29.1870,-90.6093,0.0,9.81,1111122 
LUMCON,ioos:station:LUMCON:102:1,2011-08-01T04:00:00Z,29.1870,-90.6093,0.0,9.69,1111122 
LUMCON,ioos:station:LUMCON:102:1,2011-08-01T05:00:00Z,29.1870,-90.6093,0.0,9.78,1111122 
LUMCON,ioos:station:LUMCON:102:1,2011-08-01T06:00:00Z,29.1870,-90.6093,0.0,9.34,1111122 
LUMCON,ioos:station:LUMCON:102:1,2011-08-01T07:00:00Z,29.1870,-90.6093,0.0,9.28,1111122 
LUMCON,ioos:station:LUMCON:102:1,2011-08-01T08:00:00Z,29.1870,-90.6093,0.0,9.79,1111122 
LUMCON,ioos:station:LUMCON:102:1,2011-08-01T09:00:00Z,29.1870,-90.6093,0.0,11.17,1111122 
LUMCON,ioos:station:LUMCON:102:1,2011-08-01T10:00:00Z,29.1870,-90.6093,0.0,12.7,1111122 
LUMCON,ioos:station:LUMCON:102:1,2011-08-01T11:00:00Z,29.1870,-90.6093,0.0,12.61,1111122 
LUMCON,ioos:station:LUMCON:102:1,2011-08-01T12:00:00Z,29.1870,-90.6093,0.0,13.2,1111122 
LUMCON,ioos:station:LUMCON:102:1,2011-08-01T13:00:00Z,29.1870,-90.6093,0.0,13.76,1111122 
LUMCON,ioos:station:LUMCON:102:1,2011-08-01T14:00:00Z,29.1870,-90.6093,0.0,14.38,1111122 
LUMCON,ioos:station:LUMCON:102:1,2011-08-01T15:00:00Z,29.1870,-90.6093,0.0,14.44,1111122 
LUMCON,ioos:station:LUMCON:102:1,2011-08-01T16:00:00Z,29.1870,-90.6093,0.0,14.84,1111122 
LUMCON,ioos:station:LUMCON:102:1,2011-08-01T17:00:00Z,29.1870,-90.6093,0.0,15.21,1111122 
LUMCON,ioos:station:LUMCON:102:1,2011-08-01T18:00:00Z,29.1870,-90.6093,0.0,15.28,1111122 
LUMCON,ioos:station:LUMCON:102:1,2011-08-01T19:00:00Z,29.1870,-90.6093,0.0,14.62,1111122 
LUMCON,ioos:station:LUMCON:102:1,2011-08-01T20:00:00Z,29.1870,-90.6093,0.0,14.45,1111122 
LUMCON,ioos:station:LUMCON:102:1,2011-08-01T21:00:00Z,29.1870,-90.6093,0.0,14.59,1111122 
LUMCON,ioos:station:LUMCON:102:1,2011-08-01T22:00:00Z,29.1870,-90.6093,0.0,14.15,1111122 
LUMCON,ioos:station:LUMCON:102:1,2011-08-01T23:00:00Z,29.1870,-90.6093,0.0,13.74,1111122 
LUMCON,ioos:station:LUMCON:102:1,2011-08-02T01:00:00Z,29.1870,-90.6093,0.0,10.09,1111122 
LUMCON,ioos:station:LUMCON:102:1,2011-08-05T02:00:00Z,29.1870,-90.6093,0.0,14.37,1111122 
LUMCON,ioos:station:LUMCON:102:1,2011-08-05T03:00:00Z,29.1870,-90.6093,0.0,14.4,1111122 
LUMCON,ioos:station:LUMCON:102:1,2011-08-05T04:00:00Z,29.1870,-90.6093,0.0,14.33,1111122 
LUMCON,ioos:station:LUMCON:102:1,2011-08-05T06:00:00Z,29.1870,-90.6093,0.0,14.87,1111122 
LUMCON,ioos:station:LUMCON:102:1,2011-08-05T07:00:00Z,29.1870,-90.6093,0.0,15.05,1111122 
LUMCON,ioos:station:LUMCON:102:1,2011-08-05T08:00:00Z,29.1870,-90.6093,0.0,15.05,1111122 
LUMCON,ioos:station:LUMCON:102:1,2011-08-05T10:00:00Z,29.1870,-90.6093,0.0,14.41,1111122 
LUMCON,ioos:station:LUMCON:102:1,2011-08-05T11:00:00Z,29.1870,-90.6093,0.0,12.79,1111122 
LUMCON,ioos:station:LUMCON:102:1,2011-08-05T13:00:00Z,29.1870,-90.6093,0.0,13.92,1111122 
LUMCON,ioos:station:LUMCON:102:1,2011-08-05T19:00:00Z,29.1870,-90.6093,0.0,12.8,1111122 
LUMCON,ioos:station:LUMCON:102:1,2011-08-05T20:00:00Z,29.1870,-90.6093,0.0,12.02,1111122 
LUMCON,ioos:station:LUMCON:102:1,2011-08-05T21:00:00Z,29.1870,-90.6093,0.0,12.05,1111122 
LUMCON,ioos:station:LUMCON:102:1,2011-08-06T01:00:00Z,29.1870,-90.6093,0.0,13.07,1111122 
LUMCON,ioos:station:LUMCON:102:1,2011-08-06T02:00:00Z,29.1870,-90.6093,0.0,14.09,1111122 
LUMCON,ioos:station:LUMCON:102:1,2011-08-06T03:00:00Z,29.1870,-90.6093,0.0,14.12,1111122 
LUMCON,ioos:station:LUMCON:102:1,2011-08-06T04:00:00Z,29.1870,-90.6093,0.0,14.49,1111122 
LUMCON,ioos:station:LUMCON:102:1,2011-08-06T05:00:00Z,29.1870,-90.6093,0.0,14.8,1111122 
LUMCON,ioos:station:LUMCON:102:1,2011-08-06T06:00:00Z,29.1870,-90.6093,0.0,15.02,1111122 
LUMCON,ioos:station:LUMCON:102:1,2011-08-06T07:00:00Z,29.1870,-90.6093,0.0,15.08,1111122 
LUMCON,ioos:station:LUMCON:102:1,2011-08-06T09:00:00Z,29.1870,-90.6093,0.0,15.4,1111122 
LUMCON,ioos:station:LUMCON:102:1,2011-08-06T10:00:00Z,29.1870,-90.6093,0.0,15.77,1111122 
LUMCON,ioos:station:LUMCON:102:1,2011-08-06T11:00:00Z,29.1870,-90.6093,0.0,16.1,1111122 
LUMCON,ioos:station:LUMCON:102:1,2011-08-06T12:00:00Z,29.1870,-90.6093,0.0,16.26,1111122 
LUMCON,ioos:station:LUMCON:102:1,2011-08-06T13:00:00Z,29.1870,-90.6093,0.0,16.08,1111122 
LUMCON,ioos:station:LUMCON:102:1,2011-08-06T14:00:00Z,29.1870,-90.6093,0.0,16.76,1111122 
LUMCON,ioos:station:LUMCON:102:1,2011-08-06T15:00:00Z,29.1870,-90.6093,0.0,16.21,1111122 
LUMCON,ioos:station:LUMCON:102:1,2011-08-06T16:00:00Z,29.1870,-90.6093,0.0,15.43,1111122 
LUMCON,ioos:station:LUMCON:102:1,2011-08-06T17:00:00Z,29.1870,-90.6093,0.0,14.6,1111122 
LUMCON,ioos:station:LUMCON:102:1,2011-08-06T18:00:00Z,29.1870,-90.6093,0.0,13.13,1111122 
LUMCON,ioos:station:LUMCON:102:1,2011-08-06T19:00:00Z,29.1870,-90.6093,0.0,12.79,1111122 
LUMCON,ioos:station:LUMCON:102:1,2011-08-06T20:00:00Z,29.1870,-90.6093,0.0,12.42,1111122 
LUMCON,ioos:station:LUMCON:102:1,2011-08-06T21:00:00Z,29.1870,-90.6093,0.0,12.14,1111122 
LUMCON,ioos:station:LUMCON:102:1,2011-08-06T22:00:00Z,29.1870,-90.6093,0.0,10.32,1111122 
LUMCON,ioos:station:LUMCON:102:1,2011-08-06T23:00:00Z,29.1870,-90.6093,0.0,7.93,1111122 
LUMCON,ioos:station:LUMCON:102:1,2011-08-07T01:00:00Z,29.1870,-90.6093,0.0,12.48,1111122 
LUMCON,ioos:station:LUMCON:102:1,2011-08-07T02:00:00Z,29.1870,-90.6093,0.0,13.25,1111122 
LUMCON,ioos:station:LUMCON:102:1,2011-08-07T03:00:00Z,29.1870,-90.6093,0.0,14.32,1111122 
LUMCON,ioos:station:LUMCON:102:1,2011-08-07T04:00:00Z,29.1870,-90.6093,0.0,14.4,1111122 
LUMCON,ioos:station:LUMCON:102:1,2011-08-07T05:00:00Z,29.1870,-90.6093,0.0,14.8,1111122 
LUMCON,ioos:station:LUMCON:102:1,2011-08-07T06:00:00Z,29.1870,-90.6093,0.0,15.17,1111122 
LUMCON,ioos:station:LUMCON:102:1,2011-08-07T07:00:00Z,29.1870,-90.6093,0.0,15.92,1111122 
LUMCON,ioos:station:LUMCON:102:1,2011-08-07T08:00:00Z,29.1870,-90.6093,0.0,16.1,1111122 
LUMCON,ioos:station:LUMCON:102:1,2011-08-07T09:00:00Z,29.1870,-90.6093,0.0,15.94,1111122 
LUMCON,ioos:station:LUMCON:102:1,2011-08-07T10:00:00Z,29.1870,-90.6093,0.0,16.23,1111122 
LUMCON,ioos:station:LUMCON:102:1,2011-08-07T11:00:00Z,29.1870,-90.6093,0.0,16.62,1111122 
LUMCON,ioos:station:LUMCON:102:1,2011-08-07T12:00:00Z,29.1870,-90.6093,0.0,16.63,1111122 
LUMCON,ioos:station:LUMCON:102:1,2011-08-07T13:00:00Z,29.1870,-90.6093,0.0,16.42,1111122 
LUMCON,ioos:station:LUMCON:102:1,2011-08-07T14:00:00Z,29.1870,-90.6093,0.0,16.48,1111122 
LUMCON,ioos:station:LUMCON:102:1,2011-08-07T15:00:00Z,29.1870,-90.6093,0.0,16.06,1111122 
LUMCON,ioos:station:LUMCON:102:1,2011-08-07T16:00:00Z,29.1870,-90.6093,0.0,15.36,1111122 
LUMCON,ioos:station:LUMCON:102:1,2011-08-07T17:00:00Z,29.1870,-90.6093,0.0,15.92,1111122 
LUMCON,ioos:station:LUMCON:102:1,2011-08-07T18:00:00Z,29.1870,-90.6093,0.0,13.85,1111122 
LUMCON,ioos:station:LUMCON:102:1,2011-08-07T19:00:00Z,29.1870,-90.6093,0.0,12.28,1111122 
LUMCON,ioos:station:LUMCON:102:1,2011-08-07T23:00:00Z,29.1870,-90.6093,0.0,9.65,1111122 
LUMCON,ioos:station:LUMCON:102:1,2011-08-08T01:00:00Z,29.1870,-90.6093,0.0,12.1,1111122 
LUMCON,ioos:station:LUMCON:102:1,2011-08-08T02:00:00Z,29.1870,-90.6093,0.0,13.48,1111122 
LUMCON,ioos:station:LUMCON:102:1,2011-08-08T03:00:00Z,29.1870,-90.6093,0.0,14.05,1111122 
LUMCON,ioos:station:LUMCON:102:1,2011-08-08T04:00:00Z,29.1870,-90.6093,0.0,14.44,1111122 
LUMCON,ioos:station:LUMCON:102:1,2011-08-08T05:00:00Z,29.1870,-90.6093,0.0,15.03,1111122 
LUMCON,ioos:station:LUMCON:102:1,2011-08-08T06:00:00Z,29.1870,-90.6093,0.0,15.64,1111122 
LUMCON,ioos:station:LUMCON:102:1,2011-08-08T07:00:00Z,29.1870,-90.6093,0.0,16.5,1111122 
LUMCON,ioos:station:LUMCON:102:1,2011-08-08T08:00:00Z,29.1870,-90.6093,0.0,17.14,1111122 
LUMCON,ioos:station:LUMCON:102:1,2011-08-08T09:00:00Z,29.1870,-90.6093,0.0,17.62,1111122 
LUMCON,ioos:station:LUMCON:102:1,2011-08-08T10:00:00Z,29.1870,-90.6093,0.0,17.67,1111122 
LUMCON,ioos:station:LUMCON:102:1,2011-08-08T11:00:00Z,29.1870,-90.6093,0.0,17.6,1111122 
LUMCON,ioos:station:LUMCON:102:1,2011-08-08T13:00:00Z,29.1870,-90.6093,0.0,17.38,1111122 
LUMCON,ioos:station:LUMCON:102:1,2011-08-08T15:00:00Z,29.1870,-90.6093,0.0,17.18,1111122 
LUMCON,ioos:station:LUMCON:102:1,2011-08-08T16:00:00Z,29.1870,-90.6093,0.0,17.18,1111122 
LUMCON,ioos:station:LUMCON:102:1,2011-08-08T18:00:00Z,29.1870,-90.6093,0.0,16.26,1111122 
LUMCON,ioos:station:LUMCON:102:1,2011-08-08T19:00:00Z,29.1870,-90.6093,0.0,13.27,1111122 
LUMCON,ioos:station:LUMCON:102:1,2011-08-08T21:00:00Z,29.1870,-90.6093,0.0,14.98,1111122 
LUMCON,ioos:station:LUMCON:102:1,2011-08-08T22:00:00Z,29.1870,-90.6093,0.0,14.39,1111122 
LUMCON,ioos:station:LUMCON:102:1,2011-08-08T23:00:00Z,29.1870,-90.6093,0.0,12.46,1111122 
LUMCON,ioos:station:LUMCON:102:1,2011-08-09T01:00:00Z,29.1870,-90.6093,0.0,11.1,1111122 
LUMCON,ioos:station:LUMCON:102:1,2011-08-09T02:00:00Z,29.1870,-90.6093,0.0,12.68,1111122 
LUMCON,ioos:station:LUMCON:102:1,2011-08-09T03:00:00Z,29.1870,-90.6093,0.0,13.04,1111122 
LUMCON,ioos:station:LUMCON:102:1,2011-08-09T04:00:00Z,29.1870,-90.6093,0.0,14.81,1111122 
LUMCON,ioos:station:LUMCON:102:1,2011-08-09T05:00:00Z,29.1870,-90.6093,0.0,15.36,1111122 
LUMCON,ioos:station:LUMCON:102:1,2011-08-09T06:00:00Z,29.1870,-90.6093,0.0,16.12,1111122 
LUMCON,ioos:station:LUMCON:102:1,2011-08-09T07:00:00Z,29.1870,-90.6093,0.0,17.06,1111122 
LUMCON,ioos:station:LUMCON:102:1,2011-08-09T08:00:00Z,29.1870,-90.6093,0.0,17.35,1111122 
LUMCON,ioos:station:LUMCON:102:1,2011-08-09T09:00:00Z,29.1870,-90.6093,0.0,18.24,1111122 
LUMCON,ioos:station:LUMCON:102:1,2011-08-09T10:00:00Z,29.1870,-90.6093,0.0,18.68,1111122 
LUMCON,ioos:station:LUMCON:102:1,2011-08-09T11:00:00Z,29.1870,-90.6093,0.0,18.55,1111122 
LUMCON,ioos:station:LUMCON:102:1,2011-08-09T12:00:00Z,29.1870,-90.6093,0.0,17.95,1111122 
LUMCON,ioos:station:LUMCON:102:1,2011-08-09T13:00:00Z,29.1870,-90.6093,0.0,17.44,1111122 
LUMCON,ioos:station:LUMCON:102:1,2011-08-09T14:00:00Z,29.1870,-90.6093,0.0,17.05,1111122 
LUMCON,ioos:station:LUMCON:102:1,2011-08-09T15:00:00Z,29.1870,-90.6093,0.0,17.18,1111122 
LUMCON,ioos:station:LUMCON:102:1,2011-08-09T16:00:00Z,29.1870,-90.6093,0.0,16.7,1111122 
LUMCON,ioos:station:LUMCON:102:1,2011-08-09T17:00:00Z,29.1870,-90.6093,0.0,16.98,1111122 
LUMCON,ioos:station:LUMCON:102:1,2011-08-09T18:00:00Z,29.1870,-90.6093,0.0,16.71,1111122 
LUMCON,ioos:station:LUMCON:102:1,2011-08-09T19:00:00Z,29.1870,-90.6093,0.0,16.56,1111122 
LUMCON,ioos:station:LUMCON:102:1,2011-08-09T20:00:00Z,29.1870,-90.6093,0.0,17.37,1111122 
LUMCON,ioos:station:LUMCON:102:1,2011-08-09T21:00:00Z,29.1870,-90.6093,0.0,16.76,1111122 
LUMCON,ioos:station:LUMCON:102:1,2011-08-09T22:00:00Z,29.1870,-90.6093,0.0,14.82,1111122 
LUMCON,ioos:station:LUMCON:102:1,2011-08-10T01:00:00Z,29.1870,-90.6093,0.0,10.13,1111122 
LUMCON,ioos:station:LUMCON:102:1,2011-08-10T02:00:00Z,29.1870,-90.6093,0.0,11.21,1111122 
LUMCON,ioos:station:LUMCON:102:1,2011-08-10T03:00:00Z,29.1870,-90.6093,0.0,12.59,1111122 
LUMCON,ioos:station:LUMCON:102:1,2011-08-10T04:00:00Z,29.1870,-90.6093,0.0,13.51,1111122 
LUMCON,ioos:station:LUMCON:102:1,2011-08-10T08:00:00Z,29.1870,-90.6093,0.0,17.1,1111122 
LUMCON,ioos:station:LUMCON:102:1,2011-08-10T13:00:00Z,29.1870,-90.6093,0.0,17.34,1111122 
LUMCON,ioos:station:LUMCON:102:1,2011-08-10T14:00:00Z,29.1870,-90.6093,0.0,17.22,1111122 
LUMCON,ioos:station:LUMCON:102:1,2011-08-10T15:00:00Z,29.1870,-90.6093,0.0,17.04,1111122 
LUMCON,ioos:station:LUMCON:102:1,2011-08-10T16:00:00Z,29.1870,-90.6093,0.0,17.06,1111122 
LUMCON,ioos:station:LUMCON:102:1,2011-08-10T17:00:00Z,29.1870,-90.6093,0.0,17.11,1111122 
LUMCON,ioos:station:LUMCON:102:1,2011-08-10T18:00:00Z,29.1870,-90.6093,0.0,17.0,1111122 
LUMCON,ioos:station:LUMCON:102:1,2011-08-10T19:00:00Z,29.1870,-90.6093,0.0,16.54,1111122 
LUMCON,ioos:station:LUMCON:102:1,2011-08-10T21:00:00Z,29.1870,-90.6093,0.0,16.07,1111122 
LUMCON,ioos:station:LUMCON:102:1,2011-08-10T22:00:00Z,29.1870,-90.6093,0.0,15.64,1111122 
LUMCON,ioos:station:LUMCON:102:1,2011-08-10T23:00:00Z,29.1870,-90.6093,0.0,14.9,1111122 
LUMCON,ioos:station:LUMCON:102:1,2011-08-11T01:00:00Z,29.1870,-90.6093,0.0,11.81,1111122 
LUMCON,ioos:station:LUMCON:102:1,2011-08-11T02:00:00Z,29.1870,-90.6093,0.0,10.63,1111122 
LUMCON,ioos:station:LUMCON:102:1,2011-08-11T03:00:00Z,29.1870,-90.6093,0.0,13.28,1111122 
LUMCON,ioos:station:LUMCON:102:1,2011-08-11T04:00:00Z,29.1870,-90.6093,0.0,15.29,1111122 
LUMCON,ioos:station:LUMCON:102:1,2011-08-11T05:00:00Z,29.1870,-90.6093,0.0,11.69,1111122 
LUMCON,ioos:station:LUMCON:102:1,2011-08-11T06:00:00Z,29.1870,-90.6093,0.0,13.79,1111122 
LUMCON,ioos:station:LUMCON:102:1,2011-08-12T01:00:00Z,29.1870,-90.6093,0.0,10.63,1111122 
LUMCON,ioos:station:LUMCON:102:1,2011-08-12T02:00:00Z,29.1870,-90.6093,0.0,7.9,1111122 
LUMCON,ioos:station:LUMCON:102:1,2011-08-12T03:00:00Z,29.1870,-90.6093,0.0,6.55,1111122 
LUMCON,ioos:station:LUMCON:102:1,2011-08-12T04:00:00Z,29.1870,-90.6093,0.0,9.17,1111122 
LUMCON,ioos:station:LUMCON:102:1,2011-08-15T22:00:00Z,29.1870,-90.6093,0.0,18.17,1111122 
LUMCON,ioos:station:LUMCON:102:1,2011-08-15T23:00:00Z,29.1870,-90.6093,0.0,17.4,1111122 
LUMCON,ioos:station:LUMCON:102:1,2011-08-16T05:00:00Z,29.1870,-90.6093,0.0,15.83,1111122 
LUMCON,ioos:station:LUMCON:102:1,2011-08-16T06:00:00Z,29.1870,-90.6093,0.0,15.07,1111122 
LUMCON,ioos:station:LUMCON:102:1,2011-08-16T07:00:00Z,29.1870,-90.6093,0.0,14.54,1111122 
LUMCON,ioos:station:LUMCON:102:1,2011-08-16T08:00:00Z,29.1870,-90.6093,0.0,13.48,1111122 
LUMCON,ioos:station:LUMCON:102:1,2011-08-16T09:00:00Z,29.1870,-90.6093,0.0,13.36,1111122 
LUMCON,ioos:station:LUMCON:102:1,2011-08-16T10:00:00Z,29.1870,-90.6093,0.0,15.03,1111122 
LUMCON,ioos:station:LUMCON:102:1,2011-08-16T11:00:00Z,29.1870,-90.6093,0.0,15.32,1111122 
LUMCON,ioos:station:LUMCON:102:1,2011-08-16T12:00:00Z,29.1870,-90.6093,0.0,15.52,1111122 
LUMCON,ioos:station:LUMCON:102:1,2011-08-16T13:00:00Z,29.1870,-90.6093,0.0,14.96,1111122 
LUMCON,ioos:station:LUMCON:102:1,2011-08-16T14:00:00Z,29.1870,-90.6093,0.0,15.17,1111122 
LUMCON,ioos:station:LUMCON:102:1,2011-08-16T15:00:00Z,29.1870,-90.6093,0.0,15.33,1111122 
LUMCON,ioos:station:LUMCON:102:1,2011-08-16T16:00:00Z,29.1870,-90.6093,0.0,15.25,1111122 
LUMCON,ioos:station:LUMCON:102:1,2011-08-16T18:00:00Z,29.1870,-90.6093,0.0,14.21,1111122 
LUMCON,ioos:station:LUMCON:102:1,2011-08-16T19:00:00Z,29.1870,-90.6093,0.0,14.6,1111122 
LUMCON,ioos:station:LUMCON:102:1,2011-08-16T20:00:00Z,29.1870,-90.6093,0.0,16.28,1111122 
LUMCON,ioos:station:LUMCON:102:1,2011-08-16T23:00:00Z,29.1870,-90.6093,0.0,16.42,1111122 
LUMCON,ioos:station:LUMCON:102:1,2011-08-17T01:00:00Z,29.1870,-90.6093,0.0,17.2,1111122 
LUMCON,ioos:station:LUMCON:102:1,2011-08-17T02:00:00Z,29.1870,-90.6093,0.0,17.18,1111122 
LUMCON,ioos:station:LUMCON:102:1,2011-08-17T03:00:00Z,29.1870,-90.6093,0.0,17.68,1111122 
LUMCON,ioos:station:LUMCON:102:1,2011-08-17T04:00:00Z,29.1870,-90.6093,0.0,17.07,1111122 
LUMCON,ioos:station:LUMCON:102:1,2011-08-17T05:00:00Z,29.1870,-90.6093,0.0,17.83,1111122 
LUMCON,ioos:station:LUMCON:102:1,2011-08-17T06:00:00Z,29.1870,-90.6093,0.0,17.04,1111122 
LUMCON,ioos:station:LUMCON:102:1,2011-08-17T07:00:00Z,29.1870,-90.6093,0.0,16.96,1111122 
LUMCON,ioos:station:LUMCON:102:1,2011-08-17T08:00:00Z,29.1870,-90.6093,0.0,16.5,1111122 
LUMCON,ioos:station:LUMCON:102:1,2011-08-17T09:00:00Z,29.1870,-90.6093,0.0,16.59,1111122 
LUMCON,ioos:station:LUMCON:102:1,2011-08-17T10:00:00Z,29.1870,-90.6093,0.0,16.06,1111122 
LUMCON,ioos:station:LUMCON:102:1,2011-08-17T11:00:00Z,29.1870,-90.6093,0.0,15.97,1111122 
LUMCON,ioos:station:LUMCON:102:1,2011-08-17T12:00:00Z,29.1870,-90.6093,0.0,15.34,1111122 
LUMCON,ioos:station:LUMCON:102:1,2011-08-17T13:00:00Z,29.1870,-90.6093,0.0,16.22,1111122 
LUMCON,ioos:station:LUMCON:102:1,2011-08-17T14:00:00Z,29.1870,-90.6093,0.0,16.61,1111122 
LUMCON,ioos:station:LUMCON:102:1,2011-08-17T15:00:00Z,29.1870,-90.6093,0.0,16.58,1111122 
LUMCON,ioos:station:LUMCON:102:1,2011-08-17T16:00:00Z,29.1870,-90.6093,0.0,17.02,1111122 
LUMCON,ioos:station:LUMCON:102:1,2011-08-17T17:00:00Z,29.1870,-90.6093,0.0,16.23,1111122 
LUMCON,ioos:station:LUMCON:102:1,2011-08-17T18:00:00Z,29.1870,-90.6093,0.0,16.3,1111122 
LUMCON,ioos:station:LUMCON:102:1,2011-08-17T19:00:00Z,29.1870,-90.6093,0.0,16.61,1111122 
LUMCON,ioos:station:LUMCON:102:1,2011-08-17T20:00:00Z,29.1870,-90.6093,0.0,17.16,1111122 
LUMCON,ioos:station:LUMCON:102:1,2011-08-17T21:00:00Z,29.1870,-90.6093,0.0,17.33,1111122 
LUMCON,ioos:station:LUMCON:102:1,2011-08-17T22:00:00Z,29.1870,-90.6093,0.0,17.61,1111122 
LUMCON,ioos:station:LUMCON:102:1,2011-08-17T23:00:00Z,29.1870,-90.6093,0.0,17.96,1111122 
LUMCON,ioos:station:LUMCON:102:1,2011-08-18T01:00:00Z,29.1870,-90.6093,0.0,15.44,1111122 
LUMCON,ioos:station:LUMCON:102:1,2011-08-18T02:00:00Z,29.1870,-90.6093,0.0,17.04,1111122 
LUMCON,ioos:station:LUMCON:102:1,2011-08-18T03:00:00Z,29.1870,-90.6093,0.0,18.18,1111122 
LUMCON,ioos:station:LUMCON:102:1,2011-08-18T04:00:00Z,29.1870,-90.6093,0.0,17.86,1111122 
LUMCON,ioos:station:LUMCON:102:1,2011-08-18T05:00:00Z,29.1870,-90.6093,0.0,19.67,1111122 
LUMCON,ioos:station:LUMCON:102:1,2011-08-18T06:00:00Z,29.1870,-90.6093,0.0,19.53,1111122 
LUMCON,ioos:station:LUMCON:102:1,2011-08-18T07:00:00Z,29.1870,-90.6093,0.0,19.44,1111122 
LUMCON,ioos:station:LUMCON:102:1,2011-08-18T08:00:00Z,29.1870,-90.6093,0.0,19.24,1111122 
LUMCON,ioos:station:LUMCON:102:1,2011-08-18T09:00:00Z,29.1870,-90.6093,0.0,18.81,1111122 
LUMCON,ioos:station:LUMCON:102:1,2011-08-18T10:00:00Z,29.1870,-90.6093,0.0,19.14,1111122 
LUMCON,ioos:station:LUMCON:102:1,2011-08-18T11:00:00Z,29.1870,-90.6093,0.0,19.12,1111122 
LUMCON,ioos:station:LUMCON:102:1,2011-08-18T13:00:00Z,29.1870,-90.6093,0.0,18.96,1111122 
LUMCON,ioos:station:LUMCON:102:1,2011-08-18T15:00:00Z,29.1870,-90.6093,0.0,17.9,1111122 
LUMCON,ioos:station:LUMCON:102:1,2011-08-18T16:00:00Z,29.1870,-90.6093,0.0,17.28,1111122 
LUMCON,ioos:station:LUMCON:102:1,2011-08-18T17:00:00Z,29.1870,-90.6093,0.0,17.28,1111122 
LUMCON,ioos:station:LUMCON:102:1,2011-08-18T18:00:00Z,29.1870,-90.6093,0.0,16.94,1111122 
LUMCON,ioos:station:LUMCON:102:1,2011-08-18T19:00:00Z,29.1870,-90.6093,0.0,16.74,1111122 
LUMCON,ioos:station:LUMCON:102:1,2011-08-18T20:00:00Z,29.1870,-90.6093,0.0,17.06,1111122 
LUMCON,ioos:station:LUMCON:102:1,2011-08-18T21:00:00Z,29.1870,-90.6093,0.0,17.3,1111122 
LUMCON,ioos:station:LUMCON:102:1,2011-08-18T22:00:00Z,29.1870,-90.6093,0.0,17.75,1111122 
LUMCON,ioos:station:LUMCON:102:1,2011-08-18T23:00:00Z,29.1870,-90.6093,0.0,18.24,1111122 
LUMCON,ioos:station:LUMCON:102:1,2011-08-19T01:00:00Z,29.1870,-90.6093,0.0,19.62,1111122 
LUMCON,ioos:station:LUMCON:102:1,2011-08-19T02:00:00Z,29.1870,-90.6093,0.0,19.6,1111122 
LUMCON,ioos:station:LUMCON:102:1,2011-08-19T03:00:00Z,29.1870,-90.6093,0.0,19.67,1111122 
LUMCON,ioos:station:LUMCON:102:1,2011-08-19T04:00:00Z,29.1870,-90.6093,0.0,19.66,1111122 
LUMCON,ioos:station:LUMCON:102:1,2011-08-19T14:00:00Z,29.1870,-90.6093,0.0,19.13,1111122 
LUMCON,ioos:station:LUMCON:102:1,2011-08-19T15:00:00Z,29.1870,-90.6093,0.0,18.83,1111122 
LUMCON,ioos:station:LUMCON:102:1,2011-08-19T16:00:00Z,29.1870,-90.6093,0.0,18.43,1111122 
LUMCON,ioos:station:LUMCON:102:1,2011-08-19T19:00:00Z,29.1870,-90.6093,0.0,17.55,1111122 
LUMCON,ioos:station:LUMCON:102:1,2011-08-19T20:00:00Z,29.1870,-90.6093,0.0,17.48,1111122 
LUMCON,ioos:station:LUMCON:102:1,2011-08-19T21:00:00Z,29.1870,-90.6093,0.0,17.83,1111122 
LUMCON,ioos:station:LUMCON:102:1,2011-08-19T22:00:00Z,29.1870,-90.6093,0.0,18.12,1111122 
LUMCON,ioos:station:LUMCON:102:1,2011-08-19T23:00:00Z,29.1870,-90.6093,0.0,18.02,1111122 
LUMCON,ioos:station:LUMCON:102:1,2011-08-20T01:00:00Z,29.1870,-90.6093,0.0,18.83,1111122 
LUMCON,ioos:station:LUMCON:102:1,2011-08-20T02:00:00Z,29.1870,-90.6093,0.0,18.98,1111122 
LUMCON,ioos:station:LUMCON:102:1,2011-08-20T03:00:00Z,29.1870,-90.6093,0.0,18.6,1111122 
LUMCON,ioos:station:LUMCON:102:1,2011-08-20T04:00:00Z,29.1870,-90.6093,0.0,18.45,1111122 
LUMCON,ioos:station:LUMCON:102:1,2011-08-20T05:00:00Z,29.1870,-90.6093,0.0,19.19,1111122 
LUMCON,ioos:station:LUMCON:102:1,2011-08-20T06:00:00Z,29.1870,-90.6093,0.0,19.16,1111122 
LUMCON,ioos:station:LUMCON:102:1,2011-08-20T07:00:00Z,29.1870,-90.6093,0.0,19.42,1111122 
LUMCON,ioos:station:LUMCON:102:1,2011-08-20T08:00:00Z,29.1870,-90.6093,0.0,19.65,1111122 
LUMCON,ioos:station:LUMCON:102:1,2011-08-20T09:00:00Z,29.1870,-90.6093,0.0,19.78,1111122 
LUMCON,ioos:station:LUMCON:102:1,2011-08-20T10:00:00Z,29.1870,-90.6093,0.0,19.77,1111122 
LUMCON,ioos:station:LUMCON:102:1,2011-08-20T11:00:00Z,29.1870,-90.6093,0.0,19.66,1111122 
LUMCON,ioos:station:LUMCON:102:1,2011-08-20T12:00:00Z,29.1870,-90.6093,0.0,19.65,1111122 
LUMCON,ioos:station:LUMCON:102:1,2011-08-20T13:00:00Z,29.1870,-90.6093,0.0,19.4,1111122 
LUMCON,ioos:station:LUMCON:102:1,2011-08-20T14:00:00Z,29.1870,-90.6093,0.0,19.25,1111122 
LUMCON,ioos:station:LUMCON:102:1,2011-08-20T15:00:00Z,29.1870,-90.6093,0.0,18.79,1111122 
LUMCON,ioos:station:LUMCON:102:1,2011-08-20T16:00:00Z,29.1870,-90.6093,0.0,17.8,1111122 
LUMCON,ioos:station:LUMCON:102:1,2011-08-20T17:00:00Z,29.1870,-90.6093,0.0,17.39,1111122 
LUMCON,ioos:station:LUMCON:102:1,2011-08-20T18:00:00Z,29.1870,-90.6093,0.0,16.93,1111122 
LUMCON,ioos:station:LUMCON:102:1,2011-08-20T19:00:00Z,29.1870,-90.6093,0.0,16.85,1111122 
LUMCON,ioos:station:LUMCON:102:1,2011-08-20T20:00:00Z,29.1870,-90.6093,0.0,16.76,1111122 
LUMCON,ioos:station:LUMCON:102:1,2011-08-20T21:00:00Z,29.1870,-90.6093,0.0,16.53,1111122 
LUMCON,ioos:station:LUMCON:102:1,2011-08-20T23:00:00Z,29.1870,-90.6093,0.0,16.59,1111122 
LUMCON,ioos:station:LUMCON:102:1,2011-08-21T01:00:00Z,29.1870,-90.6093,0.0,18.27,1111122 
LUMCON,ioos:station:LUMCON:102:1,2011-08-21T02:00:00Z,29.1870,-90.6093,0.0,18.34,1111122 
LUMCON,ioos:station:LUMCON:102:1,2011-08-21T03:00:00Z,29.1870,-90.6093,0.0,18.49,1111122 
LUMCON,ioos:station:LUMCON:102:1,2011-08-21T04:00:00Z,29.1870,-90.6093,0.0,18.66,1111122 
LUMCON,ioos:station:LUMCON:102:1,2011-08-21T06:00:00Z,29.1870,-90.6093,0.0,19.27,1111122 
LUMCON,ioos:station:LUMCON:102:1,2011-08-21T08:00:00Z,29.1870,-90.6093,0.0,18.49,1111122 
LUMCON,ioos:station:LUMCON:102:1,2011-08-21T10:00:00Z,29.1870,-90.6093,0.0,19.16,1111122 
LUMCON,ioos:station:LUMCON:102:1,2011-08-21T11:00:00Z,29.1870,-90.6093,0.0,19.65,1111122 
LUMCON,ioos:station:LUMCON:102:1,2011-08-21T12:00:00Z,29.1870,-90.6093,0.0,19.56,1111122 
LUMCON,ioos:station:LUMCON:102:1,2011-08-21T13:00:00Z,29.1870,-90.6093,0.0,19.42,1111122 
LUMCON,ioos:station:LUMCON:102:1,2011-08-21T14:00:00Z,29.1870,-90.6093,0.0,19.16,1111122 
LUMCON,ioos:station:LUMCON:102:1,2011-08-21T16:00:00Z,29.1870,-90.6093,0.0,17.85,1111122 
LUMCON,ioos:station:LUMCON:102:1,2011-08-21T17:00:00Z,29.1870,-90.6093,0.0,16.34,1111122 
LUMCON,ioos:station:LUMCON:102:1,2011-08-21T18:00:00Z,29.1870,-90.6093,0.0,15.82,1111122 
LUMCON,ioos:station:LUMCON:102:1,2011-08-21T19:00:00Z,29.1870,-90.6093,0.0,15.65,1111122 
LUMCON,ioos:station:LUMCON:102:1,2011-08-21T20:00:00Z,29.1870,-90.6093,0.0,15.73,1111122 
LUMCON,ioos:station:LUMCON:102:1,2011-08-21T21:00:00Z,29.1870,-90.6093,0.0,15.5,1111122 
LUMCON,ioos:station:LUMCON:102:1,2011-08-21T22:00:00Z,29.1870,-90.6093,0.0,15.61,1111122 
LUMCON,ioos:station:LUMCON:102:1,2011-08-21T23:00:00Z,29.1870,-90.6093,0.0,15.88,1111122 
LUMCON,ioos:station:LUMCON:102:1,2011-08-22T01:00:00Z,29.1870,-90.6093,0.0,17.08,1111122 
LUMCON,ioos:station:LUMCON:102:1,2011-08-22T02:00:00Z,29.1870,-90.6093,0.0,17.65,1111122 
LUMCON,ioos:station:LUMCON:102:1,2011-08-22T03:00:00Z,29.1870,-90.6093,0.0,17.34,1111122 
LUMCON,ioos:station:LUMCON:102:1,2011-08-22T04:00:00Z,29.1870,-90.6093,0.0,17.12,1111122 
LUMCON,ioos:station:LUMCON:102:1,2011-08-22T05:00:00Z,29.1870,-90.6093,0.0,18.19,1111122 
LUMCON,ioos:station:LUMCON:102:1,2011-08-22T06:00:00Z,29.1870,-90.6093,0.0,18.32,1111122 
LUMCON,ioos:station:LUMCON:102:1,2011-08-22T07:00:00Z,29.1870,-90.6093,0.0,18.46,1111122 